カタログに戻る

FENGYUN 1C DEB

運用中PO
NORAD 29841·DEBRIS·🇨🇳 China

打ち上げ May 10, 1999 から Taiyuan Satellite Launch Center

Loading…

次のパス (今後24時間)

TLE

最新Source: Space-Track

元期: Sep 14, 2026, 09:02 UTC

1 29841U 99025EK  26257.37658963  .00000465  00000-0  11279-3 0  9996
2 29841  98.8522 221.6460 0197659 225.9688 295.9086 14.47261728 33061

AllMySatでFENGYUN 1C DEBをリアルタイム追跡

Download on the App Store